Probability
0 0 0 0 0 0 0 0 0 0 0 0 0 0 0 0 0 0 0 0 0 0 0 0 0 0 0 0 0 0 0 0 0 0 0 0 0 0 0 0 0 0 0 0
0 0 0 0 0 0 0 0 0 0 0 0 0 0 0 0 0 0 0 0 0 0 0 0 0 0 0 0 0 0 0 0 0 0 0 0 0 0 0 0 0 0 0 0
0 0 0 0 0 0 0 0 0 0 0 0 0 0 0 0 0 0 0 0 0 0 0 0 0 0 0 0 0 0 0 0 0 0 0 0 0 0 0 0 0 0 0 0
0 0 0 0 0 0 0 0 0 0 0 0 0 0 0 0 0 0 0 0 0 0 0 0 0 0 0 0 0 0 0 0 0 0 0 0 0 0 0 0 0 0 0 0
0 0 0 0 0 0 0 0 0 0 0 0 0 0 0 0 0 0 0 0 0 0 0 0 0 0 0 0 0 0 0 0 0 0 0 0 0 0 0 0 0 0 0 0
0 0 0 0 0 0 0 0 0 0 0 0 0 0 0 0 0 0 0 0 0 0 0 0 0 0 0 0 0 0 0 0 0 0 0 0 0 0 0 0 0 0 0 0
0 0 0 0 0 0 0 0 0 0 0 0 0 0 0 0 0 0 0 0 0 0 0 0 0 0 0 0 0 0 0 0 0 0 0 0 0 0 0 0 0 0 0 0
0 0 0 0 0 0 0 0 0 0 0 0 0 0 0 0 0 0 0 0 0 0 0 0 0 0 0 0 0 0 0 0 0 0 0 0 0 0 0 0 0 0 0 0
0 0 0 0 0 0 0 0 0 0 0 0 0 0 0 0 0 0 0 0 0 0 0 0 0 0 0 0 0 0 0 0 0 0 0 0 0 0 0 0 0 0 0 0
0 0 0 0 0 0 0 0 0 0 0 0 0 0 0 0 0 0 0 0 0 0 0 0 0 0 0 0 0 0 0 0 0 0 0 0 0 0 0 0 0 0 0 0
0 0 0 0 0 0 0 0 0 0 0 0 0 0 0 0 0 0 0 0 0 0 0 0 0 0 0 0 0 0 0 0 0 0 0 0 0 0 0 0 0 0 0 0
0 0 0 0 0 0 0 0 0 0 0 0 0 0 0 0 0 0 0 0 0 0 0 0 0 0 0 0 0 0 0 0 0 0 0 0 0 0 0 0 0 0 0 0
0 0 0 0 0 0 0 0 0 0 0 0 0 0 0 0 0 0 0 0 0 0 0 0 0 0 0 0 0 0 0 0 0 0 0 0 0 0 0 0 0 0 0 0
0 0 0 0 0 0 0 0 0 0 0 0 0 0 0 0 0 0 0 0 0 0 0 0 0 0 0 0 0 0 0 0 0 0 0 0 0 0 0 0 0 0 0 0
0 0 0 0 0 0 0 0 0 0 0 0 0 0 0 0 0 0 0 0 0 0 0 0 0 0 0 0 0 0 0 0 0 0 0 0 0 0 0 0 0 0 0 0
0 0 0 0 0 0 0 0 0 0 0 0 0 0 0 0 0 0 0 0 0 0 0 0 0 0 0 0 0 0 0 0 0 0 0 0 0 0 0 0 0 0 0 0
0 0 0 0 0 0 0 0 0 0 0 0 0 0 0 0 0 0 0 0 0 0 0 0 0 0 0 0 0 0 0 0 0 0 0 0 0 0 0 0 0 0 0 0
0 0 0 0 0 0 0 0 0 0 0 0 0 0 0 0 0 0 0 0 0 0 0 0 0 0 0 0 0 0 0 0 0 0 0 0 0 0 0 0 0 0 0 0
0 0 0 0 0 0 0 0 0 0 0 0 0 0 0 0 0 0 0 0 0 0 0 0 0 0 0 0 0 0 0 0 0 0 0 0 0 0 0 0 0 0 0 0
0 0 0 0 0 0 0 0 0 0 0 0 0 0 0 0 0 0 0 0 0 0 0 0 0 0 0 0 0 0 0 0 0 0 0 0 0 0 0 0 0 0 0 0
0 0 0 0 0 0 0 0 0 0 0 0 0 0 0 0 0 0 0 0 0 0 0 0 0 0 0 0 0 0 0 0 0 0 0 0 0 0 0 0 0 0 0 0
0 0 0 0 0 0 0 0 0 0 0 0 0 0 0 0 0 0 0 0 0 0 0 0 0 0 0 0 0 0 0 0 0 0 0 0 0 0 0 0 0 0 0 0
0 0 0 0 0 0 0 0 0 0 0 0 0 0 0 0 0 0 0 0 0 0 0 0 0 0 0 0 0 0 0 0 0 0 0 0 0 0 0 0 0 0 0 0
0 0 0 0 0 0 0 0 0 0 0 0 0 0 0 0 0 0 0 0 0 0 0 0 0 0 0 0 0 0 0 0 0 0 0 0 0 0 0 0 0 0 0 0
0 0 0 0 0 0 0 0 0 0 0 0 0 0 0 0 0 0 0 0 0 0 0 0 0 0 0 0 0 0 0 0 0 0 0 0 0 0 0 0 0 0 0 0
0 0 0 0 0 0 0 0 0 0 0 0 0 0 0 0 0 0 0 0 0 0 0 0 0 0 0 0 0 0 0 0 0 0 0 0 0 0 0 0 0 0 0 0
0 0 0 0 0 0 0 0 0 0 0 0 0 0 0 0 0 0 0 0 0 0 0 0 0 0 0 0 0 0 0 0 0 0 0 0 0 0 0 0 0 0 0 0
Wind_Speed
6 4 4 5 7 8 10 10 10 9 9 11 9 6 5 4 4 3 3 3 3 3 3 3 3 4 4 5 5 4 3 3 4 4 4 4 4 5 4 5 6 6 6 6
5 5 6 9 10 11 12 11 12 10 13 11 8 5 5 5 4 4 4 4 4 3 3 3 4 4 4 5 5 4 3 4 4 4 4 4 5 5 4 4 4 5 5 5
4 3 2 10 12 13 10 9 10 13 14 8 5 6 7 6 5 6 5 4 4 4 4 4 4 3 4 5 4 3 3 4 4 4 4 4 5 5 4 4 3 4 5 5
2 1 9 9 4 8 11 11 11 10 9 7 7 5 3 4 5 5 4 4 4 3 3 3 3 3 3 4 3 4 4 4 5 4 4 4 4 5 5 4 3 4 5 5
3 5 9 8 4 4 7 8 8 11 10 7 3 1 2 2 3 4 4 3 3 3 2 2 2 3 3 3 3 3 4 5 5 5 5 5 5 5 5 5 5 4 5 5
4 5 7 6 5 3 2 6 4 4 5 4 2 2 4 2 1 1 1 1 1 1 0 1 3 2 2 3 4 4 4 5 5 4 4 5 5 5 5 5 5 5 5 5
7 6 8 7 4 1 3 7 3 1 2 2 4 5 4 2 1 1 1 0 0 1 0 2 2 1 2 3 4 4 4 4 5 5 5 4 4 4 5 5 5 5 6 5
5 7 9 3 2 4 5 2 1 1 1 1 2 2 2 2 2 1 0 0 0 0 2 2 2 1 3 4 5 4 4 4 5 5 5 5 4 5 5 5 6 6 6 6
8 8 5 2 4 3 2 2 2 2 2 1 1 1 1 1 1 0 0 1 1 1 2 3 3 2 3 5 4 4 4 4 5 5 5 5 5 5 5 5 4 5 5 6
4 6 5 4 3 2 2 2 2 2 1 2 2 2 1 1 1 1 1 1 1 1 2 4 4 4 4 4 3 3 4 4 4 4 5 5 4 4 4 4 5 5 6 6
5 6 4 4 3 2 1 1 1 1 1 2 2 2 2 1 1 1 1 2 1 2 3 4 4 4 4 3 3 3 4 4 4 4 4 5 5 4 5 4 5 6 5 6
7 6 5 5 4 2 1 1 1 1 1 1 2 2 2 1 1 1 1 2 2 3 3 4 5 5 4 4 3 3 4 4 4 4 4 4 5 6 7 7 10 11 11 10
5 4 4 4 2 1 1 1 0 0 1 1 1 1 1 1 1 1 2 2 3 4 4 4 5 5 5 4 3 3 4 4 4 4 4 4 5 5 7 8 9 10 11 12
2 1 2 1 1 1 1 0 1 1 1 1 1 0 0 0 1 1 2 3 3 4 4 4 5 5 5 4 4 4 4 5 5 4 4 4 4 5 5 6 8 7 8 11
2 0 1 0 1 1 1 1 2 2 2 2 1 1 1 1 2 3 3 3 3 4 4 4 5 5 5 4 4 5 4 4 4 4 4 4 4 5 5 6 6 7 7 8
1 2 2 2 2 2 2 2 1 1 1 2 2 2 2 2 2 3 3 3 3 4 5 5 5 5 5 5 5 4 4 7 7 4 4 4 4 5 5 5 5 6 6 6
1 0 1 1 1 2 1 1 1 1 2 2 2 2 2 2 2 3 4 4 3 4 4 4 5 6 5 5 4 4 4 5 8 6 4 4 4 5 5 5 5 6 5 6
1 1 1 2 2 2 2 2 2 2 2 2 2 2 2 2 3 4 4 4 4 4 4 5 5 5 5 5 4 4 4 4 4 4 5 5 5 5 5 5 5 6 5 6
2 1 1 1 1 1 1 2 2 2 2 2 2 2 3 3 3 4 3 3 4 5 5 5 7 5 5 6 6 3 3 4 4 4 4 7 6 5 4 5 5 5 5 5
3 3 2 2 2 1 1 2 2 2 2 2 2 2 3 3 3 3 3 4 4 4 5 6 5 4 5 5 6 3 3 4 4 4 5 4 5 5 5 5 5 5 5 4
3 3 3 2 3 3 2 2 2 2 3 2 2 3 3 4 4 3 3 4 5 5 5 7 4 4 4 5 6 3 3 4 4 4 4 5 5 5 5 5 5 5 5 5
2 2 2 2 2 3 3 2 2 2 3 3 3 3 3 4 4 4 4 4 5 7 5 4 4 6 7 7 3 3 4 4 4 4 4 4 5 5 5 5 5 5 4 4
2 2 2 2 2 3 3 3 3 2 2 3 3 3 3 4 3 3 4 4 4 7 5 4 7 9 9 5 3 3 4 4 4 4 4 4 4 5 5 5 5 5 4 5
2 2 2 2 2 2 3 3 3 2 3 3 3 3 3 3 3 3 3 7 8 8 5 6 9 9 8 3 3 3 4 4 4 4 4 4 4 4 4 5 4 4 5 6
1 2 2 2 2 2 2 3 3 3 3 2 3 3 3 2 3 4 4 5 7 7 5 6 9 9 5 4 4 4 4 4 4 4 4 4 4 4 4 4 4 4 5 5
1 2 2 2 2 2 2 2 2 2 3 3 3 3 3 3 3 3 3 4 5 6 5 4 5 6 4 4 4 4 4 5 5 4 4 4 5 5 4 5 6 5 5 5
2 2 2 2 2 2 2 2 2 3 3 3 3 3 3 3 3 3 4 4 4 4 4 4 4 4 4 4 4 4 4 4 4 4 4 4 4 4 5 5 5 5 5 5
Wind_Direction
246 247 228 238 233 216 214 216 220 233 234 248 244 235 232 230 229 229 232 235 233 244 259 274 289 296 300 304 306 307 312 310 303 301 301 304 296 285 263 245 249 251 251 253
266 246 244 255 245 232 231 229 233 249 260 253 246 238 239 240 230 226 228 231 236 244 256 269 276 288 301 305 305 311 311 304 306 313 315 317 311 304 288 264 263 262 254 255
261 270 298 258 232 221 219 214 210 233 247 253 244 235 225 221 218 220 223 225 225 232 243 255 265 277 289 293 304 314 311 311 316 317 313 311 314 324 320 296 282 276 269 264
242 185 237 247 230 216 220 231 221 230 243 239 235 235 232 215 207 216 218 219 227 233 248 260 270 291 299 310 319 320 320 321 322 324 319 318 324 322 316 312 298 286 284 276
201 231 267 282 263 211 211 245 233 232 244 247 228 73 312 259 202 207 212 215 220 220 231 262 284 293 309 319 326 329 325 321 320 320 320 321 319 314 313 313 305 292 286 282
201 220 245 259 278 264 161 264 270 226 231 235 150 187 254 253 210 206 203 197 206 232 282 317 304 310 323 316 322 318 313 312 314 317 318 315 311 307 306 304 299 297 293 285
216 230 258 264 281 77 177 251 298 235 207 181 189 208 216 191 183 179 176 196 112 82 322 291 305 331 318 312 306 302 309 316 321 321 316 307 305 308 306 304 304 300 294 290
198 217 247 255 135 187 226 260 311 315 232 187 209 199 181 171 188 189 147 345 21 9 308 310 323 329 311 302 299 306 313 317 319 319 318 321 316 313 312 309 309 306 298 298
201 219 249 218 207 234 212 213 235 226 241 200 203 202 190 183 193 225 243 297 321 305 316 322 323 316 297 296 304 310 313 312 312 315 317 318 315 312 312 312 308 308 302 299
243 263 266 267 271 281 248 231 245 234 207 183 210 223 212 226 264 298 311 308 320 334 320 313 314 309 288 294 305 311 308 308 309 313 314 315 313 311 310 310 308 306 308 301
246 264 283 276 254 252 286 325 326 318 243 204 191 219 224 231 249 265 297 306 309 299 296 300 308 308 304 305 311 307 304 305 308 307 305 308 308 303 303 293 296 302 299 297
232 231 224 248 255 235 206 279 270 269 301 298 210 212 211 223 243 257 286 303 308 310 310 310 314 312 314 312 305 300 306 308 306 304 305 306 307 308 308 303 310 309 305 300
237 252 242 252 263 292 239 269 249 176 220 278 291 209 189 214 260 291 306 307 299 299 303 306 311 310 314 314 310 302 300 304 302 302 304 307 309 310 312 316 316 314 315 313
265 255 251 249 264 320 324 8 55 48 27 347 318 5 89 311 315 310 299 298 299 302 306 308 310 310 313 312 311 307 304 302 303 299 298 299 300 300 301 308 315 316 317 318
329 311 205 230 21 14 16 49 56 28 20 9 7 4 351 314 301 302 306 312 315 312 312 313 312 311 316 313 311 307 305 302 299 295 295 296 298 299 300 302 303 307 313 318
4 47 72 76 47 18 24 37 43 337 339 336 332 321 312 297 297 306 315 320 316 309 310 312 309 310 315 316 312 308 304 307 310 305 303 303 302 301 301 301 302 305 307 312
106 15 5 350 332 330 323 313 282 287 304 306 301 309 317 319 318 318 320 319 307 301 305 306 305 308 314 317 311 305 304 307 314 311 304 302 300 297 295 296 298 299 299 307
134 199 216 223 238 281 310 323 324 319 308 304 314 320 315 307 301 305 311 319 322 318 312 307 304 310 313 311 306 300 301 301 302 303 305 304 300 295 295 295 297 298 303 312
39 37 12 348 312 291 302 310 315 315 314 318 318 306 296 293 295 301 309 316 313 308 308 309 316 321 312 310 313 299 300 301 304 304 302 305 309 308 306 302 300 302 305 310
20 13 12 2 356 348 325 325 329 323 317 320 318 313 309 305 305 306 307 298 287 284 294 306 313 308 306 307 315 307 305 304 306 306 306 304 306 309 309 307 308 308 310 313
2 1 2 357 347 342 332 321 316 311 317 325 316 303 301 304 306 303 300 299 299 301 307 314 316 308 307 311 315 310 308 307 307 306 306 309 311 311 311 311 311 313 316 317
347 348 346 346 348 337 331 328 318 313 322 325 319 309 305 306 307 302 286 280 295 312 318 310 306 309 315 319 316 313 311 308 306 305 306 309 310 310 311 313 313 314 317 317
330 334 337 335 332 325 329 333 328 323 315 310 307 303 298 297 298 300 304 305 304 314 318 305 311 317 322 326 320 316 314 309 306 305 304 305 304 305 307 309 310 313 315 316
342 342 333 329 335 339 333 326 328 323 312 306 303 299 296 300 304 296 289 305 316 319 318 314 321 326 331 328 319 315 310 304 301 302 302 302 303 304 303 305 309 312 312 313
336 328 327 334 334 319 308 315 323 322 321 317 313 309 300 284 284 298 304 304 313 322 318 318 325 329 330 318 315 309 304 298 299 301 298 300 302 302 302 304 306 307 308 309
322 315 305 300 294 295 300 306 310 312 316 317 317 315 312 307 300 300 305 308 308 317 318 312 313 317 313 308 305 303 299 303 308 306 301 300 299 299 299 303 305 303 303 303
328 327 327 328 323 313 308 308 307 307 307 304 305 308 311 311 312 312 310 311 313 314 310 307 305 303 302 301 299 298 297 297 296 294 295 294 294 293 295 296 297 298 300 300